Wind_Speed
29 28 28 28 27 27 26 26 26 25 25 25 25 25 24 24 24 24 24 24 24 24 24 24 25 24 25 24 24 23 23 23 23 23 23 23 23 23 23 23 23 22 22
29 29 29 29 28 27 27 27 27 27 26 26 26 26 26 26 25 25 26 26 26 26 26 26 26 27 27 26 26 25 25 25 26 26 26 25 25 25 25 25 25 25 25
31 31 30 30 29 29 28 28 27 27 27 26 26 26 26 26 26 26 26 26 27 27 27 28 28 28 28 28 28 28 28 28 28 28 27 27 27 27 27 27 27 27 27
32 32 31 31 30 30 30 29 29 28 28 28 27 27 26 27 27 28 27 28 28 28 28 29 29 29 29 29 29 30 30 30 29 29 29 29 30 29 29 29 29 29 29
32 32 32 32 31 31 31 31 31 30 29 29 29 29 28 28 29 29 29 29 29 30 30 30 30 30 31 31 31 31 31 31 31 30 31 31 31 31 31 31 31 31 31
33 33 33 33 33 32 32 32 31 31 31 31 31 31 30 29 29 30 30 31 31 31 32 31 32 32 32 32 32 32 32 33 33 33 32 32 32 33 33 33 33 33 34
34 34 34 34 34 34 33 33 33 32 32 33 33 33 32 32 31 31 31 32 32 32 32 32 33 33 33 33 34 34 34 34 34 34 34 34 35 34 35 36 36 36 36
34 34 35 35 35 35 35 35 35 34 34 34 34 34 34 34 34 33 34 34 34 34 33 33 34 34 35 35 35 36 36 36 37 36 36 36 37 37 37 38 38 37 37
35 35 35 36 36 36 36 36 36 35 35 35 35 35 35 35 35 35 35 35 36 36 36 35 36 36 36 36 37 37 38 39 39 39 38 38 38 39 39 39 38 39 39
37 36 36 36 36 36 37 37 37 36 36 36 36 36 36 36 36 35 36 36 36 37 37 37 37 37 37 37 38 38 40 41 41 41 40 40 40 41 40 40 39 39 40
39 38 37 37 37 37 38 38 37 37 37 37 37 37 37 37 38 37 37 37 38 38 38 38 39 39 40 39 39 39 40 41 41 41 41 41 41 42 41 41 40 41 41
39 38 38 38 38 39 39 39 39 38 38 38 38 38 38 38 38 39 39 39 39 40 40 40 40 41 41 40 40 40 40 40 41 41 41 41 41 42 42 42 43 43 43
39 39 39 39 39 39 40 40 40 40 39 39 39 39 39 39 39 39 40 40 40 40 40 41 40 41 42 41 41 41 41 41 41 41 41 41 41 42 42 43 43 44 45
40 40 40 40 40 40 40 40 41 40 40 40 40 40 40 40 40 40 40 40 40 40 40 40 41 42 42 41 41 42 42 42 43 42 42 43 43 43 43 44 44 45 45
41 41 42 41 41 41 40 40 41 41 41 41 41 40 40 40 40 41 41 41 41 40 40 41 41 41 41 42 42 43 43 43 44 45 45 45 45 45 45 45 46 46 47
43 42 42 42 42 42 41 41 41 41 41 41 41 42 42 42 42 42 42 42 42 41 42 41 41 42 42 43 43 44 44 45 45 46 46 46 46 47 47 47 47 47 48
44 44 43 43 43 42 42 42 42 42 42 42 42 42 43 43 43 43 43 43 43 43 43 42 42 42 42 43 45 45 45 45 45 46 46 47 47 47 48 48 48 48 48
45 45 44 44 44 44 43 43 43 43 43 43 43 43 43 43 43 43 44 44 44 43 42 42 43 43 44 44 45 46 46 46 46 47 47 48 48 49 49 49 49 49 49
45 46 45 45 44 44 44 44 44 43 44 44 44 43 44 44 44 44 44 45 44 44 44 43 44 45 45 45 45 46 46 46 47 47 48 49 49 49 50 50 50 51 51
47 46 46 46 45 45 45 44 44 44 44 44 45 44 44 44 44 44 44 44 45 45 45 44 45 45 45 46 46 46 46 47 47 48 49 49 50 50 50 51 51 51 52
47 47 47 47 46 45 45 45 45 45 45 45 45 45 45 44 45 45 45 45 45 45 45 45 45 45 45 46 46 46 47 47 48 49 49 49 50 50 50 51 51 52 52
48 48 47 47 47 46 46 45 45 45 45 45 45 45 46 45 45 45 46 46 46 45 46 46 46 46 46 46 46 47 47 48 48 49 49 49 49 49 50 51 51 51 52
48 48 47 47 47 47 46 46 46 45 45 45 45 45 46 46 46 46 46 46 46 47 47 47 46 46 46 47 47 47 47 48 48 49 49 49 50 50 50 50 51 51 52
49 49 49 48 48 48 47 47 46 46 45 45 45 45 45 45 46 46 46 46 46 47 47 47 46 46 46 46 47 47 47 47 48 48 49 49 49 49 50 51 51 52 52
51 50 50 50 49 49 49 49 48 47 47 46 46 45 45 45 45 46 46 46 46 46 47 47 47 46 46 46 46 46 47 47 47 48 48 48 48 49 50 51 51 52 52
51 51 51 51 50 50 50 50 49 49 48 48 47 46 46 46 46 46 45 45 46 46 46 46 46 46 47 47 46 46 47 48 48 48 48 48 49 49 49 49 50 51 50
Wind_Direction
241 243 244 245 246 246 248 249 251 252 252 252 252 252 254 256 257 258 260 262 264 266 267 269 271 273 275 276 276 277 278 280 280 279 279 280 283 285 285 286 287 287 288
240 242 244 244 246 247 248 249 250 252 254 254 254 254 255 257 259 260 261 263 264 265 267 269 271 273 273 274 274 275 276 278 279 278 278 279 282 283 283 284 285 285 285
241 242 244 244 245 247 249 249 250 251 253 253 255 256 256 256 258 260 263 264 265 266 268 270 271 273 273 273 273 274 275 277 279 278 278 280 281 282 282 283 284 284 284
241 242 244 244 245 246 248 249 250 252 253 254 256 257 258 258 259 261 263 265 267 268 269 271 272 273 273 273 273 273 274 276 277 277 278 279 280 280 281 282 282 283 283
241 242 244 244 245 247 248 250 251 251 253 255 256 258 260 261 261 262 263 265 267 268 270 271 273 273 273 273 272 273 274 275 276 276 277 278 278 279 280 281 282 283 283
240 242 244 245 246 248 250 251 253 253 254 255 257 258 261 261 262 263 265 266 267 269 269 271 272 272 273 273 272 272 273 274 275 275 276 277 278 280 280 281 280 281 282
241 243 244 246 247 249 250 252 253 254 255 256 257 259 260 262 262 263 265 267 267 269 270 271 272 272 272 273 273 271 273 274 274 276 276 277 278 279 280 280 280 280 281
243 245 247 247 248 249 251 252 253 254 256 257 257 258 260 262 263 266 266 267 268 268 270 272 272 273 272 272 273 273 273 274 276 277 277 277 277 278 279 279 280 280 280
245 246 247 248 249 250 251 252 253 255 255 256 257 258 259 261 263 265 267 268 267 268 270 271 272 272 272 271 272 273 274 275 276 277 277 277 277 278 279 278 278 278 278
245 247 247 248 249 250 251 251 252 254 255 257 258 259 260 260 262 264 266 268 269 269 270 271 271 273 272 271 272 273 274 275 276 277 277 277 277 278 279 278 278 278 278
245 247 248 248 249 249 250 251 252 254 256 257 259 260 261 262 262 264 266 269 269 270 271 272 272 274 274 273 273 275 275 277 277 278 278 278 278 278 278 277 277 278 278
245 247 248 248 248 249 251 252 253 254 256 258 260 261 262 263 264 264 266 268 270 271 272 274 275 275 275 274 274 275 277 278 278 278 279 278 278 277 277 277 277 278 278
245 248 248 248 249 250 251 252 254 255 257 259 260 262 263 264 265 266 267 268 270 272 273 274 276 276 276 276 276 276 277 278 279 279 279 279 279 278 278 278 278 278 278
247 248 248 248 249 250 251 253 254 256 257 259 261 262 264 265 266 267 268 270 272 272 273 274 276 276 276 276 276 276 277 278 279 279 279 279 279 278 279 278 278 279 279
247 247 248 249 250 251 252 253 254 255 257 259 261 263 264 265 266 267 268 269 270 272 273 275 275 275 275 276 276 276 277 278 279 279 279 278 279 278 278 278 279 279 279
247 247 248 250 251 252 253 253 255 256 257 259 261 263 263 264 266 266 266 268 270 271 273 274 275 275 276 276 276 277 277 278 279 280 280 279 279 279 279 279 280 281 281
247 247 248 250 251 252 253 255 256 256 258 260 261 263 264 265 265 266 267 268 270 272 273 274 275 275 276 276 276 277 278 278 279 281 281 280 280 280 280 280 281 282 282
247 248 249 250 251 252 254 255 257 258 259 260 262 263 263 264 265 266 268 269 270 272 274 274 275 275 277 278 277 277 278 278 279 281 281 281 280 281 281 281 281 281 281
248 248 249 251 252 254 255 257 258 259 260 261 263 264 263 264 265 266 269 269 270 272 274 274 275 276 278 279 279 279 279 279 279 280 280 281 281 282 282 282 281 281 280
248 249 250 252 253 255 256 257 258 259 261 262 262 263 264 265 265 266 268 269 271 272 273 274 275 276 277 279 280 280 280 280 280 281 281 282 282 282 282 282 283 283 282
249 250 251 252 254 255 257 257 258 260 261 262 263 263 264 266 267 267 268 270 271 272 273 275 276 276 277 278 279 280 280 281 282 282 282 282 282 282 282 283 283 283 283
249 250 251 253 254 256 257 258 259 260 261 261 262 264 265 266 267 268 269 269 271 272 273 274 275 276 277 277 279 281 282 281 282 283 283 283 283 283 283 283 284 284 284
249 250 251 252 254 255 256 258 259 260 261 262 263 265 266 266 268 269 269 270 271 272 273 275 275 276 278 278 279 280 281 282 283 283 283 283 284 284 284 284 284 285 284
249 250 251 252 253 254 256 257 259 260 261 263 264 265 267 267 268 269 270 271 271 272 273 275 275 276 278 279 280 280 281 282 284 284 284 284 284 284 285 285 286 287 286
249 250 252 252 253 254 256 257 258 260 262 264 265 266 267 267 268 269 270 270 271 273 274 276 276 278 279 280 281 281 282 283 283 284 284 285 285 284 285 286 286 287 287
249 250 252 253 253 254 256 257 258 259 261 263 264 265 267 268 268 269 270 271 272 273 274 276 277 278 279 280 280 281 282 283 284 285 285 286 286 286 286 286 286 287 288
Height
5813 5815 5818 5820 5823 5825 5827 5829 5831 5833 5834 5836 5838 5839 5841 5842 5843 5844 5845 5846 5847 5848 5848 5849 5849 5850 5850 5850 5850 5850 5850 5849 5849 5849 5849 5849 5849 5848 5848 5848 5847 5846 5846
5806 5809 5812 5815 5817 5819 5821 5823 5825 5827 5829 5831 5832 5834 5835 5837 5838 5839 5840 5841 5842 5843 5843 5844 5844 5844 5844 5844 5844 5844 5844 5844 5844 5844 5844 5844 5844 5843 5843 5843 5842 5841 5841
5800 5803 5806 5808 5811 5813 5815 5817 5819 5821 5823 5825 5827 5828 5830 5831 5832 5833 5834 5835 5836 5837 5837 5838 5838 5838 5838 5839 5839 5839 5839 5839 5838 5838 5838 5838 5838 5838 5837 5837 5836 5836 5835
5793 5796 5799 5802 5805 5807 5809 5811 5813 5815 5817 5819 5821 5822 5824 5825 5826 5827 5828 5829 5830 5831 5831 5832 5832 5832 5832 5832 5832 5832 5832 5832 5832 5832 5832 5832 5832 5832 5831 5831 5830 5830 5829
5787 5789 5793 5795 5798 5800 5803 5805 5807 5809 5811 5813 5815 5816 5818 5819 5820 5821 5822 5823 5824 5824 5825 5825 5825 5825 5825 5826 5826 5826 5825 5825 5825 5825 5825 5825 5825 5825 5824 5824 5823 5823 5822
5779 5782 5785 5788 5791 5794 5796 5798 5800 5802 5804 5806 5808 5810 5811 5812 5813 5815 5816 5816 5817 5817 5818 5818 5818 5818 5818 5818 5818 5818 5818 5818 5818 5818 5818 5818 5818 5817 5817 5816 5816 5815 5815
5772 5775 5778 5781 5784 5786 5789 5791 5793 5795 5797 5799 5801 5802 5804 5805 5806 5807 5808 5809 5810 5810 5811 5811 5811 5811 5811 5811 5811 5811 5811 5811 5811 5810 5810 5810 5810 5809 5809 5808 5808 5807 5807
5764 5768 5770 5773 5776 5778 5781 5783 5785 5787 5789 5791 5793 5795 5796 5798 5799 5800 5800 5801 5802 5802 5803 5803 5803 5803 5803 5803 5803 5803 5802 5802 5802 5802 5802 5802 5801 5801 5800 5799 5799 5798 5798
5756 5759 5762 5765 5768 5770 5773 5775 5777 5779 5781 5783 5784 5786 5788 5790 5791 5792 5792 5793 5794 5794 5795 5795 5795 5795 5794 5794 5794 5794 5794 5794 5794 5794 5793 5793 5792 5791 5791 5790 5790 5789 5789
5748 5751 5753 5756 5759 5762 5764 5766 5769 5771 5773 5774 5776 5778 5779 5781 5782 5783 5784 5785 5785 5786 5786 5786 5786 5786 5786 5785 5785 5785 5785 5784 5784 5784 5783 5783 5782 5781 5781 5780 5780 5779 5779
5739 5742 5745 5748 5750 5753 5755 5758 5760 5762 5764 5766 5768 5769 5770 5772 5773 5774 5775 5776 5776 5777 5777 5777 5777 5777 5776 5776 5776 5775 5775 5775 5774 5774 5773 5772 5772 5771 5770 5770 5769 5769 5768
5730 5733 5736 5739 5741 5744 5747 5749 5751 5753 5755 5757 5759 5760 5761 5763 5764 5765 5766 5767 5767 5767 5767 5767 5767 5767 5767 5766 5766 5765 5765 5765 5764 5764 5763 5762 5761 5761 5760 5759 5759 5758 5757
5722 5725 5727 5730 5732 5735 5737 5740 5742 5744 5746 5748 5749 5751 5752 5753 5754 5755 5756 5757 5758 5758 5758 5758 5757 5757 5757 5756 5756 5755 5755 5755 5754 5754 5753 5752 5751 5750 5749 5748 5747 5746 5745
5712 5715 5718 5721 5723 5726 5728 5730 5732 5735 5737 5739 5740 5741 5743 5744 5745 5745 5746 5747 5748 5748 5748 5748 5747 5747 5747 5746 5746 5745 5745 5744 5744 5743 5742 5741 5740 5739 5738 5737 5736 5735 5734
5703 5705 5708 5711 5714 5716 5718 5721 5723 5725 5727 5729 5730 5732 5733 5734 5734 5735 5736 5737 5739 5739 5739 5738 5738 5737 5736 5736 5735 5735 5734 5734 5733 5732 5731 5730 5729 5728 5726 5725 5724 5723 5722
5693 5696 5699 5702 5704 5707 5709 5711 5713 5715 5717 5719 5720 5721 5723 5724 5724 5725 5726 5727 5728 5728 5729 5728 5728 5727 5726 5725 5724 5724 5723 5723 5722 5720 5719 5718 5717 5716 5714 5713 5712 5710 5709
5683 5686 5689 5692 5695 5697 5699 5701 5703 5705 5707 5709 5710 5711 5712 5713 5714 5715 5715 5716 5717 5717 5718 5718 5717 5716 5715 5714 5713 5712 5712 5711 5710 5709 5707 5706 5705 5703 5702 5700 5699 5697 5696
5672 5676 5679 5681 5684 5687 5689 5691 5693 5695 5697 5698 5699 5700 5701 5702 5703 5704 5705 5706 5706 5706 5706 5706 5706 5705 5704 5703 5702 5701 5700 5699 5698 5697 5695 5694 5692 5691 5689 5687 5685 5684 5682
5662 5665 5668 5671 5674 5676 5679 5681 5683 5684 5686 5688 5689 5690 5691 5692 5693 5693 5694 5695 5695 5695 5695 5695 5695 5694 5693 5692 5691 5690 5688 5687 5686 5684 5683 5681 5679 5678 5676 5674 5672 5670 5669
5651 5655 5658 5660 5663 5666 5668 5670 5672 5674 5675 5677 5678 5679 5680 5681 5682 5683 5683 5684 5684 5684 5684 5683 5683 5683 5682 5680 5679 5678 5677 5675 5673 5672 5670 5668 5666 5664 5663 5661 5659 5657 5655
5640 5644 5646 5649 5652 5654 5657 5659 5661 5662 5664 5665 5667 5668 5669 5670 5671 5672 5672 5673 5673 5672 5672 5672 5672 5671 5670 5669 5668 5666 5665 5664 5662 5659 5658 5656 5654 5652 5650 5647 5645 5643 5640
5629 5632 5635 5638 5641 5643 5645 5647 5649 5651 5653 5654 5655 5657 5658 5659 5659 5660 5661 5661 5661 5661 5661 5661 5660 5659 5658 5657 5656 5654 5653 5651 5650 5648 5645 5643 5640 5639 5636 5634 5632 5629 5626
5617 5620 5623 5626 5629 5632 5634 5636 5637 5639 5641 5643 5644 5645 5646 5647 5648 5649 5649 5649 5649 5649 5649 5649 5648 5647 5646 5645 5644 5642 5640 5638 5637 5635 5632 5631 5628 5626 5623 5620 5618 5615 5613
5605 5608 5611 5614 5617 5620 5622 5624 5626 5627 5629 5631 5632 5634 5635 5635 5636 5637 5637 5637 5637 5637 5637 5637 5636 5635 5634 5632 5631 5630 5628 5626 5624 5621 5619 5618 5616 5613 5610 5607 5604 5601 5598
5592 5596 5599 5602 5604 5607 5609 5612 5614 5616 5618 5619 5620 5622 5623 5623 5624 5625 5625 5625 5625 5625 5624 5624 5623 5622 5621 5620 5618 5617 5615 5613 5612 5609 5606 5605 5603 5600 5598 5594 5590 5587 5584
5580 5583 5586 5589 5592 5595 5597 5599 5601 5603 5605 5607 5608 5609 5610 5611 5612 5612 5612 5613 5613 5613 5612 5611 5610 5610 5608 5607 5606 5604 5602 5601 5599 5597 5595 5592 5590 5586 5585 5583 5578 5574 5570